Regional Weather Roundup
Issued by NWS Huntsville, AL

Home | Current Version | Previous Version | Text Only | Print | Product List | Glossary On
Versions: 1 2 3 4 5 6 7 8 9 10 11 12 13 14 15 16 17 18 19 20 21 22 23 24 25 26
000
ASUS44 KHUN 281910
RWRHUN

WEATHER ROUNDUP FOR THE TENNESSEE VALLEY
NATIONAL WEATHER SERVICE HUNTSVILLE AL
200 PM CDT TUE MAR 28 2017

ALZ001>004-282000-
NORTHWEST ALABAMA

CITY           SKY/WX    TMP DP  RH WIND       PRES   REMARKS
COURTLAND HCN    N/A     68 N/A N/A NW5         N/A
RUSSELLVILLE     N/A     70 N/A N/A MISG        N/A
SHOALS AIRPORT SUNNY     71  60  68 W3        30.01F
SHOALS TVA RES   N/A     70 N/A N/A MISG        N/A
$$

ALZ005>007-016-282000-
NORTH CENTRAL ALABAMA

CITY           SKY/WX    TMP DP  RH WIND       PRES   REMARKS
CULLMAN AG STN   N/A     72 N/A N/A W5          N/A
DECATUR AP     PTSUNNY   68  60  75 W8        30.02F
HUNTSVILLE AP  PTSUNNY   70  62  76 W6        30.01F
MERIDIANVILLE  MOSUNNY   70  57  64 NW3       30.01F
REDSTONE ARSN  PTSUNNY   69  59  71 SW8       30.00F
VINEMONT AP    FAIR      73  62  69 NW7       30.02F
$$

ALZ008>010-282000-
NORTHEAST ALABAMA

CITY           SKY/WX    TMP DP  RH WIND       PRES   REMARKS
ALBERTVILLE    MOSUNNY   72  66  83 W13       29.99F
FORT PAYNE     PTSUNNY   72  59  64 W8        29.99F
SCOTTSBORO AP  MOSUNNY   73  59  60 W8        30.00F
SCOTTSBORO HCN   N/A     72 N/A N/A MISG        N/A
VALLEY HEAD      N/A     70 N/A N/A MISG        N/A
$$

TNZ076-096-097-282000-
SOUTHEASTERN MIDDLE TENNESSEE

CITY           SKY/WX    TMP DP  RH WIND       PRES   REMARKS
TULLAHOMA      MOSUNNY   64  54  68 NW8         N/A
WINCHESTER     MOSUNNY   66  55  68 CALM      30.02F
$$

...SURROUNDING SITES...

CITY           SKY/WX    TMP DP  RH WIND       PRES   REMARKS
ATLANTA        PTSUNNY   78  59  51 NW7G20    29.97F
ANNISTON       PTSUNNY   79  64  60 W9        29.97F
BIRMINGHAM     MOSUNNY   78  63  59 W9        30.01F
CHATTANOOGA    MOSUNNY   73  57  57 VRB5      29.99F
CORINTH        FAIR      72  57  60 CALM      30.00F
DALTON         MOSUNNY   72  57  60 W7        29.98F
GADSDEN        MOSUNNY   78  61  55 NW12      29.98F
GOLDEN TRNGL   PTSUNNY   81  63  54 CALM      29.93F
HALEYVILLE     FAIR      72  62  71 N5        30.02F
JACKSON TN     SUNNY     71  58  63 N9        30.01F
MEMPHIS        MOSUNNY   76  57  51 CALM      29.99F
NASHVILLE      PTSUNNY   69  53  56 N8G18     30.02F
OXFORD MS      FAIR      77  57  50 W5        29.99F
ROME           PTSUNNY   76  60  57 W10       29.97F
SAVANNAH       MOSUNNY   72  57  60 VRB3      29.99F
TUPELO         MOSUNNY   77  60  55 MISG      29.97F
TUSCALOOSA     MOSUNNY   78  65  63 VRB3      29.98F
$$

...GULF COAST WEATHER...

CITY           SKY/WX    TMP DP  RH WIND       PRES   REMARKS
GULFPORT       MOSUNNY   80  68  66 S12       30.00F
PASCAGOULA     SUNNY     80  66  62 VRB7      30.01F
MOBILE         PTSUNNY   82  65  56 S10G18    30.00F
GULF SHORES    MOCLDY    77  69  76 S6        30.03F
PENSACOLA      MOSUNNY   78  68  71 S15       30.02F
DESTIN         SUNNY     79  74  84 VRB7      30.03F
PANAMA CITY    MOSUNNY   78  68  72 W8        30.03F
APPALACHICOLA  SUNNY     77  67  71 S15       30.04F
$$





USA.gov is the U.S. government's official web portal to all federal, state and local government web resources and services.